Year,Month,Day,Hour,Minute,Value (Times are PST for windgust in km/hr)
2008,10,06,00,00,0.00
2008,10,06,00,01,0.00
2008,10,06,00,02,0.00
2008,10,06,00,03,0.00
2008,10,06,00,04,0.00
2008,10,06,00,05,0.00
2008,10,06,00,06,0.00
2008,10,06,00,07,0.00
2008,10,06,00,08,0.00
2008,10,06,00,09,0.00
2008,10,06,00,10,0.00
2008,10,06,00,11,0.00
2008,10,06,00,12,0.00
2008,10,06,04,02,1.60
2008,10,06,04,03,0.00
2008,10,06,04,04,1.60
2008,10,06,04,05,1.60
2008,10,06,04,06,0.00
2008,10,06,04,07,0.00
2008,10,06,04,08,0.00
2008,10,06,04,09,0.00
2008,10,06,04,10,0.00
2008,10,06,04,11,1.60
2008,10,06,04,12,1.60
2008,10,06,04,13,0.00
2008,10,06,04,14,0.00
2008,10,06,04,15,0.00
2008,10,06,04,16,0.00
2008,10,06,04,17,0.00
2008,10,06,04,18,0.00
2008,10,06,04,19,1.60
2008,10,06,04,20,0.00
2008,10,06,04,21,0.00
2008,10,06,04,22,0.00
2008,10,06,04,23,0.00
2008,10,06,04,24,0.00
2008,10,06,04,25,1.60
2008,10,06,04,26,0.00
2008,10,06,04,27,0.00
2008,10,06,04,28,0.00
2008,10,06,04,29,0.00
2008,10,06,04,30,0.00
2008,10,06,04,31,0.00
2008,10,06,04,32,0.00
2008,10,06,04,33,0.00
2008,10,06,04,34,0.00
2008,10,06,04,35,0.00
2008,10,06,04,36,0.00
2008,10,06,04,37,0.00
2008,10,06,04,38,0.00
2008,10,06,04,39,0.00
2008,10,06,04,40,0.00
2008,10,06,04,41,0.00
2008,10,06,04,42,0.00
2008,10,06,04,43,0.00
2008,10,06,04,44,0.00
2008,10,06,04,45,0.00
2008,10,06,04,46,0.00
2008,10,06,04,47,0.00
2008,10,06,04,48,1.60
2008,10,06,04,49,0.00
2008,10,06,04,50,0.00
2008,10,06,04,51,0.00
2008,10,06,04,52,0.00
2008,10,06,04,53,0.00
2008,10,06,04,54,0.00
2008,10,06,04,55,0.00
2008,10,06,04,56,0.00
2008,10,06,04,57,0.00
2008,10,06,04,58,0.00
2008,10,06,04,59,0.00
2008,10,06,05,00,0.00
2008,10,06,05,01,0.00
2008,10,06,05,02,0.00
2008,10,06,05,03,0.00
2008,10,06,05,04,0.00
2008,10,06,05,05,0.00
2008,10,06,05,06,0.00
2008,10,06,05,07,0.00
2008,10,06,05,08,0.00
2008,10,06,05,09,0.00
2008,10,06,05,10,0.00
2008,10,06,05,11,0.00
2008,10,06,05,12,0.00
2008,10,06,05,13,0.00
2008,10,06,05,14,1.60
2008,10,06,05,15,0.00
2008,10,06,05,16,0.00
2008,10,06,05,17,0.00
2008,10,06,05,18,0.00
2008,10,06,05,19,0.00
2008,10,06,05,20,0.00
2008,10,06,05,21,0.00
2008,10,06,05,22,0.00
2008,10,06,05,23,0.00
2008,10,06,05,24,0.00
2008,10,06,05,25,0.00
2008,10,06,05,26,0.00
2008,10,06,05,27,0.00
2008,10,06,05,28,0.00
2008,10,06,05,29,0.00
2008,10,06,05,30,0.00
2008,10,06,05,31,0.00
2008,10,06,05,32,0.00
2008,10,06,05,33,0.00
2008,10,06,05,34,0.00
2008,10,06,05,35,0.00
2008,10,06,05,36,0.00
2008,10,06,05,37,0.00
2008,10,06,05,38,0.00
2008,10,06,05,39,0.00
2008,10,06,05,40,0.00
2008,10,06,05,41,0.00
2008,10,06,05,42,0.00
2008,10,06,05,43,0.00
2008,10,06,05,44,0.00
2008,10,06,05,45,0.00
2008,10,06,05,46,0.00
2008,10,06,05,47,0.00
2008,10,06,05,48,0.00
2008,10,06,05,49,0.00
2008,10,06,05,50,0.00
2008,10,06,05,51,0.00
2008,10,06,05,52,0.00
2008,10,06,05,53,0.00
2008,10,06,05,54,0.00
2008,10,06,05,55,0.00
2008,10,06,05,56,0.00
2008,10,06,05,57,0.00
2008,10,06,05,58,0.00
2008,10,06,05,59,0.00
2008,10,06,06,00,0.00
2008,10,06,06,01,0.00
2008,10,06,06,02,0.00
2008,10,06,06,03,0.00
2008,10,06,06,04,0.00
2008,10,06,06,05,0.00
2008,10,06,06,06,0.00
2008,10,06,06,07,0.00
2008,10,06,06,08,0.00
2008,10,06,06,09,0.00
2008,10,06,06,10,0.00
2008,10,06,06,11,0.00
2008,10,06,06,12,0.00
2008,10,06,06,13,0.00
2008,10,06,06,14,0.00
2008,10,06,06,15,0.00
2008,10,06,06,16,0.00
2008,10,06,06,17,0.00
2008,10,06,06,18,0.00
2008,10,06,06,19,0.00
2008,10,06,06,20,0.00
2008,10,06,06,21,0.00
2008,10,06,06,22,0.00
2008,10,06,06,23,0.00
2008,10,06,06,24,0.00
2008,10,06,06,25,0.00
2008,10,06,06,26,0.00
2008,10,06,06,27,0.00
2008,10,06,06,28,0.00
2008,10,06,06,29,0.00
2008,10,06,06,30,0.00
2008,10,06,06,31,0.00
2008,10,06,06,32,0.00
2008,10,06,06,33,0.00
2008,10,06,06,34,0.00
2008,10,06,06,35,0.00
2008,10,06,06,36,0.00
2008,10,06,06,37,0.00
2008,10,06,06,38,0.00
2008,10,06,06,39,0.00
2008,10,06,06,40,0.00
2008,10,06,06,41,0.00
2008,10,06,06,42,0.00
2008,10,06,06,43,0.00
2008,10,06,06,44,0.00
2008,10,06,06,45,0.00
2008,10,06,06,46,0.00
2008,10,06,06,47,0.00
2008,10,06,06,48,0.00
2008,10,06,06,49,0.00
2008,10,06,06,50,0.00
2008,10,06,06,51,0.00
2008,10,06,06,52,0.00
2008,10,06,06,53,0.00
2008,10,06,06,54,0.00
2008,10,06,06,55,0.00
2008,10,06,06,56,0.00
2008,10,06,06,57,0.00
2008,10,06,06,58,0.00
2008,10,06,06,59,0.00
2008,10,06,07,00,0.00
2008,10,06,07,01,0.00
2008,10,06,07,02,0.00
2008,10,06,07,03,0.00
2008,10,06,07,04,0.00
2008,10,06,07,05,0.00
2008,10,06,07,06,0.00
2008,10,06,07,07,0.00
2008,10,06,07,08,0.00
2008,10,06,07,09,0.00
2008,10,06,07,10,0.00
2008,10,06,07,11,0.00
2008,10,06,07,12,0.00
2008,10,06,07,13,0.00
2008,10,06,07,14,0.00
2008,10,06,07,15,0.00
2008,10,06,07,16,0.00
2008,10,06,07,17,0.00
2008,10,06,07,18,0.00
2008,10,06,07,19,0.00
2008,10,06,07,20,0.00
2008,10,06,07,21,0.00
2008,10,06,07,22,0.00
2008,10,06,07,23,0.00
2008,10,06,07,24,0.00
2008,10,06,07,25,0.00
2008,10,06,07,26,0.00
2008,10,06,07,27,0.00
2008,10,06,07,28,0.00
2008,10,06,07,29,0.00
2008,10,06,07,30,0.00
2008,10,06,07,31,0.00
2008,10,06,07,32,0.00
2008,10,06,07,33,0.00
2008,10,06,07,34,0.00
2008,10,06,07,35,0.00
2008,10,06,07,36,0.00
2008,10,06,07,37,0.00
2008,10,06,07,38,0.00
2008,10,06,07,39,0.00
2008,10,06,07,40,0.00
2008,10,06,07,41,0.00
2008,10,06,07,42,0.00
2008,10,06,07,43,0.00
2008,10,06,07,44,0.00
2008,10,06,07,45,0.00
2008,10,06,07,46,0.00
2008,10,06,07,47,0.00
2008,10,06,07,48,0.00
2008,10,06,07,49,0.00
2008,10,06,07,50,0.00
2008,10,06,07,51,0.00
2008,10,06,07,52,0.00
2008,10,06,07,53,0.00
2008,10,06,07,54,0.00
2008,10,06,07,55,0.00
2008,10,06,07,56,0.00
2008,10,06,07,57,0.00
2008,10,06,07,58,0.00
2008,10,06,07,59,0.00
2008,10,06,08,00,0.00
2008,10,06,08,01,0.00
2008,10,06,08,02,0.00
2008,10,06,08,03,0.00
2008,10,06,08,04,0.00
2008,10,06,08,05,0.00
2008,10,06,08,06,0.00
2008,10,06,08,07,0.00
2008,10,06,08,08,0.00
2008,10,06,08,09,0.00
2008,10,06,08,10,0.00
2008,10,06,08,11,0.00
2008,10,06,08,12,0.00
2008,10,06,08,13,0.00
2008,10,06,08,14,0.00
2008,10,06,08,15,0.00
2008,10,06,08,16,0.00
2008,10,06,08,17,0.00
2008,10,06,08,18,0.00
2008,10,06,08,19,0.00
2008,10,06,08,20,0.00
2008,10,06,08,21,0.00
2008,10,06,08,22,0.00
2008,10,06,08,23,0.00
2008,10,06,08,24,0.00
2008,10,06,08,25,0.00
2008,10,06,08,26,0.00
2008,10,06,08,27,0.00
2008,10,06,08,28,0.00
2008,10,06,08,29,0.00
2008,10,06,08,30,0.00
2008,10,06,08,31,0.00
2008,10,06,08,32,0.00
2008,10,06,08,33,0.00
2008,10,06,08,34,0.00
2008,10,06,08,35,0.00
2008,10,06,08,36,0.00
2008,10,06,08,37,0.00
2008,10,06,08,38,0.00
2008,10,06,08,39,0.00
2008,10,06,08,40,0.00
2008,10,06,08,41,0.00
2008,10,06,08,42,0.00
2008,10,06,08,43,0.00
2008,10,06,08,44,0.00
2008,10,06,08,45,0.00
2008,10,06,08,46,0.00
2008,10,06,08,47,0.00
2008,10,06,08,48,0.00
2008,10,06,08,49,0.00
2008,10,06,08,50,0.00
2008,10,06,08,51,0.00
2008,10,06,08,52,0.00
2008,10,06,08,53,0.00
2008,10,06,08,54,0.00
2008,10,06,08,55,0.00
2008,10,06,08,56,0.00
2008,10,06,08,57,0.00
2008,10,06,08,58,0.00
2008,10,06,08,59,0.00
2008,10,06,09,00,0.00
2008,10,06,09,01,0.00
2008,10,06,09,02,0.00
2008,10,06,09,03,0.00
2008,10,06,09,04,0.00
2008,10,06,09,05,0.00
2008,10,06,09,06,0.00
2008,10,06,09,07,0.00
2008,10,06,09,08,0.00
2008,10,06,09,09,0.00
2008,10,06,09,10,0.00
2008,10,06,09,11,0.00
2008,10,06,09,12,0.00
2008,10,06,09,13,0.00
2008,10,06,09,14,0.00
2008,10,06,09,15,0.00
2008,10,06,09,16,0.00
2008,10,06,09,17,0.00
2008,10,06,09,18,0.00
2008,10,06,09,19,0.00
2008,10,06,09,20,0.00
2008,10,06,09,21,0.00
2008,10,06,09,22,0.00
2008,10,06,09,23,0.00
2008,10,06,09,24,0.00
2008,10,06,09,25,0.00
2008,10,06,09,26,0.00
2008,10,06,09,27,0.00
2008,10,06,09,28,0.00
2008,10,06,09,29,0.00
2008,10,06,09,30,0.00
2008,10,06,09,31,0.00
2008,10,06,09,32,0.00
2008,10,06,09,33,0.00
2008,10,06,09,34,0.00
2008,10,06,09,35,0.00
2008,10,06,09,36,0.00
2008,10,06,09,37,0.00
2008,10,06,09,38,0.00
2008,10,06,09,39,0.00
2008,10,06,09,40,0.00
2008,10,06,09,41,0.00
2008,10,06,09,42,0.00
2008,10,06,09,43,0.00
2008,10,06,09,44,0.00
2008,10,06,09,45,0.00
2008,10,06,09,46,0.00
2008,10,06,09,47,0.00
2008,10,06,09,48,0.00
2008,10,06,09,49,0.00
2008,10,06,09,50,0.00
2008,10,06,09,51,0.00
2008,10,06,09,52,0.00
2008,10,06,09,53,0.00
2008,10,06,09,54,0.00
2008,10,06,09,55,0.00
2008,10,06,09,56,0.00
2008,10,06,09,57,0.00
2008,10,06,09,58,0.00
2008,10,06,09,59,0.00
2008,10,06,10,00,0.00
2008,10,06,10,01,0.00
2008,10,06,10,02,0.00
2008,10,06,10,03,0.00
2008,10,06,10,04,0.00
2008,10,06,10,05,0.00
2008,10,06,10,06,0.00
2008,10,06,10,07,0.00
2008,10,06,10,08,0.00
2008,10,06,10,09,0.00
2008,10,06,10,10,0.00
2008,10,06,10,11,0.00
2008,10,06,10,12,0.00
2008,10,06,10,13,0.00
2008,10,06,10,14,0.00
2008,10,06,10,15,0.00
2008,10,06,10,16,0.00
2008,10,06,10,17,0.00
2008,10,06,10,18,0.00
2008,10,06,10,19,0.00
2008,10,06,10,20,0.00
2008,10,06,10,21,0.00
2008,10,06,10,22,0.00
2008,10,06,10,23,0.00
2008,10,06,10,24,0.00
2008,10,06,10,25,0.00
2008,10,06,10,26,0.00
2008,10,06,10,27,0.00
2008,10,06,10,28,0.00
2008,10,06,10,29,0.00
2008,10,06,10,30,0.00
2008,10,06,10,31,0.00
2008,10,06,10,32,0.00
2008,10,06,10,33,0.00
2008,10,06,10,34,0.00
2008,10,06,10,35,0.00
2008,10,06,10,36,0.00
2008,10,06,10,37,0.00
2008,10,06,10,38,0.00
2008,10,06,10,39,0.00
2008,10,06,10,40,0.00
2008,10,06,10,41,0.00
2008,10,06,10,42,0.00
2008,10,06,10,43,0.00
2008,10,06,10,44,0.00
2008,10,06,10,45,0.00
2008,10,06,10,46,0.00
2008,10,06,10,47,0.00
2008,10,06,10,48,0.00
2008,10,06,10,49,0.00
2008,10,06,10,50,0.00
2008,10,06,10,51,0.00
2008,10,06,10,52,0.00
2008,10,06,10,53,0.00
2008,10,06,10,54,0.00
2008,10,06,10,55,0.00
2008,10,06,10,56,0.00
2008,10,06,10,57,0.00
2008,10,06,10,58,0.00
2008,10,06,10,59,0.00
2008,10,06,11,00,0.00
2008,10,06,11,01,0.00
2008,10,06,11,02,0.00
2008,10,06,11,03,0.00
2008,10,06,11,04,0.00
2008,10,06,11,05,0.00
2008,10,06,11,06,0.00
2008,10,06,11,07,0.00
2008,10,06,11,08,0.00
2008,10,06,11,09,0.00
2008,10,06,11,10,0.00
2008,10,06,11,11,0.00
2008,10,06,11,12,0.00
2008,10,06,11,13,0.00
2008,10,06,11,14,0.00
2008,10,06,11,15,0.00
2008,10,06,11,16,0.00
2008,10,06,11,17,0.00
2008,10,06,11,18,0.00
2008,10,06,11,19,0.00
2008,10,06,11,20,0.00
2008,10,06,11,21,0.00
2008,10,06,11,22,0.00
2008,10,06,11,23,0.00
2008,10,06,11,24,0.00
2008,10,06,11,25,0.00
2008,10,06,11,26,0.00
2008,10,06,11,27,0.00
2008,10,06,11,28,0.00
2008,10,06,11,29,0.00
2008,10,06,11,30,0.00
2008,10,06,11,31,0.00
2008,10,06,11,32,0.00
2008,10,06,11,33,0.00
2008,10,06,11,34,0.00
2008,10,06,11,35,0.00
2008,10,06,11,36,0.00
2008,10,06,11,37,0.00
2008,10,06,11,38,0.00
2008,10,06,11,39,0.00
2008,10,06,11,40,0.00
2008,10,06,11,41,0.00
2008,10,06,11,42,0.00
2008,10,06,11,43,0.00
2008,10,06,11,44,3.20
2008,10,06,11,45,1.60
2008,10,06,11,46,0.00
2008,10,06,11,47,1.60
2008,10,06,11,48,9.60
2008,10,06,11,49,4.80
2008,10,06,11,50,0.00
2008,10,06,11,51,0.00
2008,10,06,11,52,1.60
2008,10,06,11,53,4.80
2008,10,06,11,54,0.00
2008,10,06,11,55,0.00
2008,10,06,11,56,3.20
2008,10,06,11,57,3.20
2008,10,06,11,58,1.60
2008,10,06,11,59,0.00
2008,10,06,12,00,1.60
2008,10,06,12,01,4.80
2008,10,06,12,02,3.20
2008,10,06,12,03,0.00
2008,10,06,12,04,1.60
2008,10,06,12,05,1.60
2008,10,06,12,06,1.60
2008,10,06,12,07,1.60
2008,10,06,12,08,0.00
2008,10,06,12,09,1.60
2008,10,06,12,10,0.00
2008,10,06,12,11,0.00
2008,10,06,12,12,0.00
2008,10,06,12,13,0.00
2008,10,06,12,14,0.00
2008,10,06,12,15,0.00
2008,10,06,12,16,0.00
2008,10,06,12,17,1.60
2008,10,06,12,18,0.00
2008,10,06,12,19,3.20
2008,10,06,12,20,1.60
2008,10,06,12,21,3.20
2008,10,06,12,22,0.00
2008,10,06,12,23,3.20
2008,10,06,12,24,3.20
2008,10,06,12,25,8.10
2008,10,06,12,26,1.60
2008,10,06,12,27,0.00
2008,10,06,12,28,0.00
2008,10,06,12,29,1.60
2008,10,06,12,30,4.80
2008,10,06,12,31,1.60
2008,10,06,12,32,0.00
2008,10,06,12,33,1.60
2008,10,06,12,34,1.60
2008,10,06,12,35,6.40
2008,10,06,12,36,8.10
2008,10,06,12,37,3.20
2008,10,06,12,38,4.80
2008,10,06,12,39,6.40
2008,10,06,12,40,8.10
2008,10,06,12,41,11.30
2008,10,06,12,42,1.60
2008,10,06,12,43,1.60
2008,10,06,12,44,0.00
2008,10,06,12,45,0.00
2008,10,06,12,46,3.20
2008,10,06,12,47,1.60
2008,10,06,12,48,14.50
2008,10,06,12,49,6.40
2008,10,06,12,50,16.10
2008,10,06,12,51,3.20
2008,10,06,12,52,3.20
2008,10,06,12,53,6.40
2008,10,06,12,54,16.10
2008,10,06,12,55,3.20
2008,10,06,12,56,4.80
2008,10,06,12,57,6.40
2008,10,06,12,58,11.30
2008,10,06,12,59,8.10
2008,10,06,13,00,8.10
2008,10,06,13,01,11.30
2008,10,06,13,02,6.40
2008,10,06,13,03,9.60
2008,10,06,13,04,9.60
2008,10,06,13,05,4.80
2008,10,06,13,06,4.80
2008,10,06,13,07,0.00
2008,10,06,13,08,0.00
2008,10,06,13,09,4.80
2008,10,06,13,10,16.10
2008,10,06,13,11,8.10
2008,10,06,13,12,1.60
2008,10,06,13,13,4.80
2008,10,06,13,14,8.10
2008,10,06,13,15,3.20
2008,10,06,13,16,6.40
2008,10,06,13,17,9.60
2008,10,06,13,18,1.60
2008,10,06,13,19,3.20
2008,10,06,13,20,1.60
2008,10,06,13,21,1.60
2008,10,06,13,22,0.00
2008,10,06,13,23,1.60
2008,10,06,13,24,1.60
2008,10,06,13,25,1.60
2008,10,06,13,26,1.60
2008,10,06,13,27,1.60
2008,10,06,13,28,3.20
2008,10,06,13,29,0.00
2008,10,06,13,30,3.20
2008,10,06,13,31,1.60
2008,10,06,13,32,0.00
2008,10,06,13,33,6.40
2008,10,06,13,34,4.80
2008,10,06,13,35,1.60
2008,10,06,13,36,4.80
2008,10,06,13,37,1.60
2008,10,06,13,38,6.40
2008,10,06,13,39,6.40
2008,10,06,13,40,4.80
2008,10,06,13,41,1.60
2008,10,06,13,42,3.20
2008,10,06,13,43,9.60
2008,10,06,13,44,8.10
2008,10,06,13,45,9.60
2008,10,06,13,46,9.60
2008,10,06,13,47,3.20
2008,10,06,13,48,1.60
2008,10,06,13,49,3.20
2008,10,06,13,50,3.20
2008,10,06,13,51,4.80
2008,10,06,13,52,4.80
2008,10,06,13,53,4.80
2008,10,06,13,54,3.20
2008,10,06,13,55,4.80
2008,10,06,13,56,6.40
2008,10,06,13,57,3.20
2008,10,06,13,58,9.60
2008,10,06,13,59,3.20
2008,10,06,14,00,8.10
2008,10,06,14,01,6.40
2008,10,06,14,02,0.00
2008,10,06,14,03,1.60
2008,10,06,14,04,9.60
2008,10,06,14,05,8.10
2008,10,06,14,06,8.10
2008,10,06,14,07,1.60
2008,10,06,14,08,3.20
2008,10,06,14,09,8.10
2008,10,06,14,10,8.10
2008,10,06,14,11,3.20
2008,10,06,14,12,6.40
2008,10,06,14,13,8.10
2008,10,06,14,14,1.60
2008,10,06,14,15,8.10
2008,10,06,14,16,6.40
2008,10,06,14,17,0.00
2008,10,06,14,18,22.50
2008,10,06,14,19,4.80
2008,10,06,14,20,6.40
2008,10,06,14,21,4.80
2008,10,06,14,22,3.20
2008,10,06,14,23,1.60
2008,10,06,14,24,4.80
2008,10,06,14,25,6.40
2008,10,06,14,26,4.80
2008,10,06,14,27,4.80
2008,10,06,14,28,14.50
2008,10,06,14,29,3.20
2008,10,06,14,30,6.40
2008,10,06,14,31,6.40
2008,10,06,14,32,6.40
2008,10,06,14,33,8.10
2008,10,06,14,34,4.80
2008,10,06,14,35,3.20
2008,10,06,14,36,3.20
2008,10,06,14,37,6.40
2008,10,06,14,38,4.80
2008,10,06,14,39,4.80
2008,10,06,14,40,1.60
2008,10,06,14,41,9.60
2008,10,06,14,42,9.60
2008,10,06,14,43,9.60
2008,10,06,14,44,17.70
2008,10,06,14,45,17.70
2008,10,06,14,46,6.40
2008,10,06,14,47,0.00
2008,10,06,14,48,6.40
2008,10,06,14,49,3.20
2008,10,06,14,50,6.40
2008,10,06,14,51,6.40
2008,10,06,14,52,1.60
2008,10,06,14,53,4.80
2008,10,06,14,54,4.80
2008,10,06,14,55,6.40
2008,10,06,14,56,4.80
2008,10,06,14,57,3.20
2008,10,06,14,58,3.20
2008,10,06,14,59,11.30
2008,10,06,15,00,3.20
2008,10,06,15,01,4.80
2008,10,06,15,02,16.10
2008,10,06,15,03,4.80
2008,10,06,15,04,3.20
2008,10,06,15,05,8.10
2008,10,06,15,06,11.30
2008,10,06,15,07,8.10
2008,10,06,15,08,9.60
2008,10,06,15,09,14.50
2008,10,06,15,10,3.20
2008,10,06,15,11,1.60
2008,10,06,15,12,4.80
2008,10,06,15,13,3.20
2008,10,06,15,14,4.80
2008,10,06,15,15,4.80
2008,10,06,15,16,4.80
2008,10,06,15,17,8.10
2008,10,06,15,18,6.40
2008,10,06,15,19,6.40
2008,10,06,15,20,3.20
2008,10,06,15,21,1.60
2008,10,06,15,22,3.20
2008,10,06,15,23,9.60
2008,10,06,15,24,9.60
2008,10,06,15,25,17.70
2008,10,06,15,26,4.80
2008,10,06,15,27,3.20
2008,10,06,15,28,8.10
2008,10,06,15,29,4.80
2008,10,06,15,30,3.20
2008,10,06,15,31,11.30
2008,10,06,15,32,6.40
2008,10,06,15,33,4.80
2008,10,06,15,34,4.80
2008,10,06,15,35,6.40
2008,10,06,15,36,1.60
2008,10,06,15,37,1.60
2008,10,06,15,38,6.40
2008,10,06,15,39,8.10
2008,10,06,15,40,6.40
2008,10,06,15,41,1.60
2008,10,06,15,42,3.20
2008,10,06,15,43,6.40
2008,10,06,15,44,3.20
2008,10,06,15,45,1.60
2008,10,06,15,46,3.20
2008,10,06,15,47,11.30
2008,10,06,15,48,6.40
2008,10,06,15,49,4.80
2008,10,06,15,50,1.60
2008,10,06,15,51,0.00
2008,10,06,15,52,1.60
2008,10,06,15,53,1.60
2008,10,06,15,54,3.20
2008,10,06,15,55,1.60
2008,10,06,15,56,6.40
2008,10,06,15,57,8.10
2008,10,06,15,58,11.30
2008,10,06,15,59,16.10
2008,10,06,16,00,8.10
2008,10,06,16,01,1.60
2008,10,06,16,02,1.60
2008,10,06,16,03,6.40
2008,10,06,16,04,0.00
2008,10,06,16,05,6.40
2008,10,06,16,06,4.80
2008,10,06,16,07,3.20
2008,10,06,16,08,3.20
2008,10,06,16,09,1.60
2008,10,06,16,10,0.00
2008,10,06,16,11,1.60
2008,10,06,16,12,3.20
2008,10,06,16,13,1.60
2008,10,06,16,14,1.60
2008,10,06,16,15,3.20
2008,10,06,16,16,1.60
2008,10,06,16,17,9.60
2008,10,06,16,18,1.60
2008,10,06,16,19,1.60
2008,10,06,16,20,6.40
2008,10,06,16,21,3.20
2008,10,06,16,22,3.20
2008,10,06,16,23,8.10
2008,10,06,16,24,3.20
2008,10,06,16,25,8.10
2008,10,06,16,26,6.40
2008,10,06,16,27,1.60
2008,10,06,16,28,4.80
2008,10,06,16,29,4.80
2008,10,06,16,30,3.20
2008,10,06,16,31,4.80
2008,10,06,16,32,3.20
2008,10,06,16,33,3.20
2008,10,06,16,34,1.60
2008,10,06,16,35,9.60
2008,10,06,16,36,1.60
2008,10,06,16,37,4.80
2008,10,06,16,38,1.60
2008,10,06,16,39,1.60
2008,10,06,16,40,3.20
2008,10,06,16,41,6.40
2008,10,06,16,42,4.80
2008,10,06,16,43,12.90
2008,10,06,16,44,6.40
2008,10,06,16,45,4.80
2008,10,06,16,46,3.20
2008,10,06,16,47,14.50
2008,10,06,16,48,9.60
2008,10,06,16,49,4.80
2008,10,06,16,50,4.80
2008,10,06,16,51,14.50
2008,10,06,16,52,3.20
2008,10,06,16,53,1.60
2008,10,06,16,54,9.60
2008,10,06,16,55,4.80
2008,10,06,16,56,6.40
2008,10,06,16,57,6.40
2008,10,06,16,58,4.80
2008,10,06,16,59,9.60
2008,10,06,17,00,8.10
2008,10,06,17,01,24.20
2008,10,06,17,02,8.10
2008,10,06,17,03,3.20
2008,10,06,17,04,6.40
2008,10,06,17,05,1.60
2008,10,06,17,06,11.30
2008,10,06,17,07,8.10
2008,10,06,17,08,1.60
2008,10,06,17,09,4.80
2008,10,06,17,10,9.60
2008,10,06,17,11,3.20
2008,10,06,17,12,8.10
2008,10,06,17,13,11.30
2008,10,06,17,14,6.40
2008,10,06,17,15,4.80
2008,10,06,17,16,3.20
2008,10,06,17,17,3.20
2008,10,06,17,18,6.40
2008,10,06,17,19,4.80
2008,10,06,17,20,11.30
2008,10,06,17,21,4.80
2008,10,06,17,22,4.80
2008,10,06,17,23,12.90
2008,10,06,17,24,4.80
2008,10,06,17,25,9.60
2008,10,06,17,26,3.20
2008,10,06,17,27,3.20
2008,10,06,17,28,9.60
2008,10,06,17,29,6.40
2008,10,06,17,30,6.40
2008,10,06,17,31,9.60
2008,10,06,17,32,8.10
2008,10,06,17,33,9.60
2008,10,06,17,34,16.10
2008,10,06,17,35,6.40
2008,10,06,17,36,8.10
2008,10,06,17,37,3.20
2008,10,06,17,38,11.30
2008,10,06,17,39,8.10
2008,10,06,17,40,8.10
2008,10,06,17,41,6.40
2008,10,06,17,42,4.80
2008,10,06,17,43,9.60
2008,10,06,17,44,6.40
2008,10,06,17,45,3.20
2008,10,06,17,46,4.80
2008,10,06,17,47,8.10
2008,10,06,17,48,8.10
2008,10,06,17,49,9.60
2008,10,06,17,50,6.40
2008,10,06,17,51,11.30
2008,10,06,17,52,19.30
2008,10,06,17,53,4.80
2008,10,06,17,54,8.10
2008,10,06,17,55,11.30
2008,10,06,17,56,6.40
2008,10,06,17,57,6.40
2008,10,06,17,58,3.20
2008,10,06,17,59,11.30
2008,10,06,18,00,8.10
2008,10,06,18,01,9.60
2008,10,06,18,02,3.20
2008,10,06,18,03,1.60
2008,10,06,18,04,6.40
2008,10,06,18,05,14.50
2008,10,06,18,06,3.20
2008,10,06,18,07,1.60
2008,10,06,18,08,8.10
2008,10,06,18,09,16.10
2008,10,06,18,10,14.50
2008,10,06,18,11,6.40
2008,10,06,18,12,6.40
2008,10,06,18,13,16.10
2008,10,06,18,14,11.30
2008,10,06,18,15,9.60
2008,10,06,18,16,3.20
2008,10,06,18,17,3.20
2008,10,06,18,18,9.60
2008,10,06,18,19,8.10
2008,10,06,18,20,3.20
2008,10,06,18,21,11.30
2008,10,06,18,22,6.40
2008,10,06,18,23,4.80
2008,10,06,18,24,16.10
2008,10,06,18,25,14.50
2008,10,06,18,26,9.60
2008,10,06,18,27,8.10
2008,10,06,18,28,6.40
2008,10,06,18,29,6.40
2008,10,06,18,30,4.80
2008,10,06,18,31,4.80
2008,10,06,18,32,4.80
2008,10,06,18,33,4.80
2008,10,06,18,34,4.80
2008,10,06,18,35,3.20
2008,10,06,18,36,3.20
2008,10,06,18,37,1.60
2008,10,06,18,38,3.20
2008,10,06,18,39,3.20
2008,10,06,18,40,3.20
2008,10,06,18,41,3.20
2008,10,06,18,42,3.20
2008,10,06,18,43,9.60
2008,10,06,18,44,3.20
2008,10,06,18,45,6.40
2008,10,06,18,46,6.40
2008,10,06,18,47,3.20
2008,10,06,18,48,6.40
2008,10,06,18,49,6.40
2008,10,06,18,50,4.80
2008,10,06,18,51,3.20
2008,10,06,18,52,4.80
2008,10,06,18,53,3.20
2008,10,06,18,54,4.80
2008,10,06,18,55,4.80
2008,10,06,18,56,8.10
2008,10,06,18,57,6.40
2008,10,06,18,58,4.80
2008,10,06,18,59,8.10
2008,10,06,19,00,17.70
2008,10,06,19,01,9.60
2008,10,06,19,02,6.40
2008,10,06,19,03,4.80
2008,10,06,19,04,3.20
2008,10,06,19,05,4.80
2008,10,06,19,06,6.40
2008,10,06,19,07,8.10
2008,10,06,19,08,8.10
2008,10,06,19,09,6.40
2008,10,06,19,10,3.20
2008,10,06,19,11,6.40
2008,10,06,19,12,6.40
2008,10,06,19,13,6.40
2008,10,06,19,14,19.30
2008,10,06,19,15,14.50
2008,10,06,19,16,8.10
2008,10,06,19,17,4.80
2008,10,06,19,18,14.50
2008,10,06,19,19,4.80
2008,10,06,19,20,4.80
2008,10,06,19,21,3.20
2008,10,06,19,22,4.80
2008,10,06,19,23,8.10
2008,10,06,19,24,6.40
2008,10,06,19,25,8.10
2008,10,06,19,26,6.40
2008,10,06,19,27,3.20
2008,10,06,19,28,3.20
2008,10,06,19,29,19.30
2008,10,06,19,30,11.30
2008,10,06,19,31,6.40
2008,10,06,19,32,9.60
2008,10,06,19,33,8.10
2008,10,06,19,34,1.60
2008,10,06,19,35,4.80
2008,10,06,19,36,3.20
2008,10,06,19,37,3.20
2008,10,06,19,38,6.40
2008,10,06,19,39,9.60
2008,10,06,19,40,4.80
2008,10,06,19,41,11.30
2008,10,06,19,42,6.40
2008,10,06,19,43,4.80
2008,10,06,19,44,3.20
2008,10,06,19,45,16.10
2008,10,06,19,46,9.60
2008,10,06,19,47,8.10
2008,10,06,19,48,11.30
2008,10,06,19,49,9.60
2008,10,06,19,50,6.40
2008,10,06,19,51,14.50
2008,10,06,19,52,8.10
2008,10,06,19,53,14.50
2008,10,06,19,54,4.80
2008,10,06,19,55,8.10
2008,10,06,19,56,1.60
2008,10,06,19,57,17.70
2008,10,06,19,58,8.10
2008,10,06,19,59,9.60
2008,10,06,20,00,9.60
2008,10,06,20,01,20.90
2008,10,06,20,02,16.10
2008,10,06,20,03,8.10
2008,10,06,20,04,8.10
2008,10,06,20,05,22.50
2008,10,06,20,06,9.60
2008,10,06,20,07,6.40
2008,10,06,20,08,4.80
2008,10,06,20,09,14.50
2008,10,06,20,10,16.10
2008,10,06,20,11,16.10
2008,10,06,20,12,9.60
2008,10,06,20,13,8.10
2008,10,06,20,14,3.20
2008,10,06,20,15,8.10
2008,10,06,20,16,9.60
2008,10,06,20,17,6.40
2008,10,06,20,18,9.60
2008,10,06,20,19,11.30
2008,10,06,20,20,9.60
2008,10,06,20,21,4.80
2008,10,06,20,22,8.10
2008,10,06,20,23,16.10
2008,10,06,20,24,4.80
2008,10,06,20,25,8.10
2008,10,06,20,26,6.40
2008,10,06,20,27,9.60
2008,10,06,20,28,16.10
2008,10,06,20,29,8.10
2008,10,06,20,30,6.40
2008,10,06,20,31,6.40
2008,10,06,20,32,4.80
2008,10,06,20,33,3.20
2008,10,06,20,34,8.10
2008,10,06,20,35,4.80
2008,10,06,20,36,6.40
2008,10,06,20,37,4.80
2008,10,06,20,38,8.10
2008,10,06,20,39,3.20
2008,10,06,20,40,9.60
2008,10,06,20,41,11.30
2008,10,06,20,42,8.10
2008,10,06,20,43,3.20
2008,10,06,20,44,3.20
2008,10,06,20,45,4.80
2008,10,06,20,46,8.10
2008,10,06,20,47,16.10
2008,10,06,20,48,11.30
2008,10,06,20,49,6.40
2008,10,06,20,50,4.80
2008,10,06,20,51,29.00
2008,10,06,20,52,11.30
2008,10,06,20,53,4.80
2008,10,06,20,54,4.80
2008,10,06,20,55,4.80
2008,10,06,20,56,4.80
2008,10,06,20,57,9.60
2008,10,06,20,58,3.20
2008,10,06,20,59,1.60
2008,10,06,21,00,4.80
2008,10,06,21,01,6.40
2008,10,06,21,02,3.20
2008,10,06,21,03,6.40
2008,10,06,21,04,9.60
2008,10,06,21,05,11.30
2008,10,06,21,06,3.20
2008,10,06,21,07,3.20
2008,10,06,21,08,8.10
2008,10,06,21,09,3.20
2008,10,06,21,10,4.80
2008,10,06,21,11,6.40
2008,10,06,21,12,1.60
2008,10,06,21,13,4.80
2008,10,06,21,14,3.20
2008,10,06,21,15,1.60
2008,10,06,21,16,4.80
2008,10,06,21,17,4.80
2008,10,06,21,18,6.40
2008,10,06,21,19,4.80
2008,10,06,21,20,4.80
2008,10,06,21,21,3.20
2008,10,06,21,22,9.60
2008,10,06,21,23,6.40
2008,10,06,21,24,6.40
2008,10,06,21,25,9.60
2008,10,06,21,26,4.80
2008,10,06,21,27,4.80
2008,10,06,21,28,3.20
2008,10,06,21,29,8.10
2008,10,06,21,30,9.60
2008,10,06,21,31,9.60
2008,10,06,21,32,8.10
2008,10,06,21,33,6.40
2008,10,06,21,34,11.30
2008,10,06,21,35,4.80
2008,10,06,21,36,11.30
2008,10,06,21,37,11.30
2008,10,06,21,38,8.10
2008,10,06,21,39,6.40
2008,10,06,21,40,11.30
2008,10,06,21,41,11.30
2008,10,06,21,42,9.60
2008,10,06,21,43,3.20
2008,10,06,21,44,6.40
2008,10,06,21,45,9.60
2008,10,06,21,46,4.80
2008,10,06,21,47,8.10
2008,10,06,21,48,17.70
2008,10,06,21,49,8.10
2008,10,06,21,50,16.10
2008,10,06,21,51,8.10
2008,10,06,21,52,6.40